Location: Beuvrequen
(50.8014°N, 1.6652°E)
Time: 22:15:43
(UTC+00:00)

Cosmos 494 Rocket - Pass Details

Date: 16 October 2021
Orbit: 743 x 770 km, 74.1° (Epoch: 04 December)

Event Time Altitude Azimuth Distance (km) Brightness Sun altitude
Rises 17:43:58 0° 335° (NNW) 3,246 7.5 -7.9°
Reaches altitude 10° 17:46:21 10° 337° (NNW) 2,312 6.7 -8.3°
Maximum altitude 17:51:37 82° 65° (ENE) 775 4.0 -9.1°
Drops below altitude 10° 17:56:48 10° 154° (SSE) 2,279 6.2 -9.9°
Sets 17:59:09 0° 155° (SSE) 3,195 7.0 -10.3°
